Date String (YYYY-MM-DD hh:mm:ss) UTC,Instrument flags,Ambient pressure (hPa),Sample flow (lpm),Bypass flow (lpm),Sample temperature (°C),Ambient temperature (°C),ASC tube jacket temperature (°C),LED temperature (°C),Box temperature (°C),Sample RH (%),Span deviation,Mass concentration (μg/m³),Mass concentration (μg/m³),Mass concentration (μg/m³)
DateTimeUTC,F1_M11,P_M11,Q1_M11,Q2_M11,T1_M11,T2_M11,T3_M11,T4_M11,T5_M11,U1_M11,ZSPAN_M11,X0_M11,X2_M11,X1_M11
2022-04-19 01:00:00,,0825.3,4.99,0.00,30.2,29.5,00.0,39.0,32.0,08.8,0007.5,0030.99,0008.36,0005.76
2022-04-19 01:01:00,,0825.3,5.00,0.00,30.2,29.5,00.0,39.0,32.0,08.8,0007.9,0030.71,0008.37,0005.76
2022-04-19 01:02:00,,0825.3,5.00,0.00,30.2,29.5,00.0,39.1,32.0,08.8,0008.8,0030.06,0008.36,0005.76
2022-04-19 01:03:00,,0825.3,5.00,0.00,30.2,29.5,00.0,39.1,32.0,08.8,0007.6,0030.59,0008.43,0005.75
2022-04-19 01:04:00,,0825.3,4.99,0.00,30.3,29.5,00.0,39.1,32.0,08.8,0006.4,0031.61,0008.54,0005.75
2022-04-19 01:05:00,,0825.3,5.00,0.00,30.3,29.5,00.0,39.1,32.0,08.8,0004.2,0033.16,0008.59,0005.76
2022-04-19 01:06:00,,0825.3,5.00,0.00,30.3,29.5,00.0,39.1,32.0,08.8,0004.1,0032.70,0008.55,0005.76
2022-04-19 01:07:00,,0825.3,5.00,0.00,30.3,29.6,00.0,39.1,32.0,08.8,0004.6,0031.26,0008.59,0005.75
2022-04-19 01:08:00,,0825.3,5.01,0.00,30.3,29.6,00.0,39.1,32.0,08.8,0005.0,0031.17,0008.65,0005.76
2022-04-19 01:09:00,,0825.3,4.99,0.00,30.3,29.6,00.0,39.1,32.0,08.8,0003.9,0030.69,0008.66,0005.74
2022-04-19 01:10:00,,0825.3,5.00,0.00,30.3,29.6,00.0,39.1,32.1,08.8,0002.3,0031.80,0008.67,0005.69
2022-04-19 01:11:00,,0825.3,5.00,0.00,30.3,29.6,00.0,39.1,32.1,08.8,0003.3,0033.69,0008.68,0005.63
2022-04-19 01:12:00,,0825.3,5.01,0.00,30.3,29.6,00.0,39.1,32.1,08.8,0002.7,0034.31,0008.63,0005.60
2022-04-19 01:13:00,,0825.4,4.99,0.00,30.3,29.6,00.0,39.2,32.1,08.8,0001.2,0034.58,0008.53,0005.56
2022-04-19 01:14:00,,0825.3,5.02,0.00,30.3,29.6,00.0,39.2,32.1,08.8,0001.2,0034.49,0008.34,0005.52
2022-04-19 01:15:00,,0825.3,4.99,0.00,30.4,29.6,00.0,39.2,32.1,08.8,0001.3,0034.27,0008.22,0005.48
2022-04-19 01:16:00,,0825.3,4.99,0.00,30.4,29.6,00.0,39.2,32.1,08.8,0001.5,0032.88,0008.07,0005.42
2022-04-19 01:17:00,,0825.3,5.01,0.00,30.4,29.6,00.0,39.2,32.1,08.8,0001.7,0034.54,0008.10,0005.38
2022-04-19 01:18:00,,0825.3,5.00,0.00,30.4,29.6,00.0,39.2,32.1,08.8,0001.2,0034.07,0008.13,0005.37
2022-04-19 01:19:00,,0825.3,4.99,0.00,30.4,29.6,00.0,39.2,32.1,08.8,0001.4,0034.19,0008.10,0005.35
2022-04-19 01:20:00,,0825.3,5.00,0.00,30.4,29.6,00.0,39.2,32.1,08.8,0002.6,0035.30,0008.10,0005.33
2022-04-19 01:21:00,,0825.3,4.99,0.00,30.4,29.5,00.0,39.2,32.1,08.8,0002.2,0034.17,0008.06,0005.33
2022-04-19 01:22:00,,0825.3,5.01,0.00,30.4,29.0,00.0,39.3,32.0,08.8,0001.8,0031.84,0008.03,0005.33
2022-04-19 01:23:00,,0825.3,5.00,0.00,30.3,27.2,00.0,39.3,31.6,08.8,0001.0,0031.17,0008.04,0005.33
2022-04-19 01:24:00,,0825.3,5.00,0.00,30.1,25.3,00.0,39.2,31.1,08.9,0002.1,0030.60,0008.04,0005.34
2022-04-19 01:25:00,,0825.3,5.01,0.00,30.0,25.4,00.0,39.1,31.1,09.0,0002.8,0031.54,0008.21,0005.35
2022-04-19 01:26:00,,0825.3,4.99,0.00,29.9,25.9,00.0,39.0,31.1,09.0,0003.3,0031.50,0008.29,0005.35
2022-04-19 01:27:00,,0825.3,5.00,0.00,29.8,26.4,00.0,39.0,31.2,09.1,0003.1,0032.31,0008.35,0005.38
2022-04-19 01:28:00,,0825.3,4.99,0.00,29.8,26.9,00.0,38.9,31.3,09.1,0002.8,0030.16,0008.40,0005.40
2022-04-19 01:29:00,,0825.3,5.00,0.00,29.8,27.4,00.0,38.9,31.4,09.1,0002.9,0029.16,0008.45,0005.40
2022-04-19 01:30:00,,0825.4,5.01,0.00,29.8,27.7,00.0,38.9,31.5,09.1,0003.3,0028.33,0008.38,0005.39
2022-04-19 01:31:00,,0825.3,5.00,0.00,29.8,28.0,00.0,38.8,31.5,09.0,0002.6,0027.84,0008.35,0005.40
2022-04-19 01:32:00,,0825.3,5.00,0.00,29.8,28.2,00.0,38.8,31.6,09.0,0003.8,0027.45,0008.31,0005.39
2022-04-19 01:33:00,,0825.3,5.00,0.00,29.8,28.4,00.0,38.8,31.6,09.0,0004.0,0028.38,0008.26,0005.39
2022-04-19 01:34:00,,0825.3,4.98,0.00,29.9,28.5,00.0,38.8,31.6,09.0,0003.6,0029.21,0008.37,0005.37
2022-04-19 01:35:00,,0825.3,5.02,0.00,29.9,28.7,00.0,38.8,31.6,09.1,0002.3,0029.41,0008.46,0005.37
2022-04-19 01:36:00,,0825.3,5.00,0.00,29.9,28.8,00.0,38.8,31.7,09.0,0002.7,0028.04,0008.43,0005.37
2022-04-19 01:37:00,,0825.3,5.00,0.00,29.9,28.8,00.0,38.8,31.7,09.0,0003.4,0027.49,0008.42,0005.36
2022-04-19 01:38:00,,0825.3,4.99,0.00,29.9,28.9,00.0,38.8,31.7,09.0,0003.3,0026.72,0008.37,0005.33
2022-04-19 01:39:00,,0825.4,5.00,0.00,29.9,28.9,00.0,38.8,31.7,09.0,0003.9,0026.35,0008.29,0005.30
2022-04-19 01:40:00,,0825.3,5.01,0.00,29.9,29.0,00.0,38.8,31.7,09.0,0003.2,0026.38,0008.22,0005.28
2022-04-19 01:41:00,,0825.3,4.99,0.00,29.9,29.0,00.0,38.8,31.7,09.0,0000.7,0027.05,0008.23,0005.28
2022-04-19 01:42:00,,0825.4,5.01,0.00,29.9,29.0,00.0,38.8,31.7,09.0,0000.0,0028.18,0008.21,0005.28
2022-04-19 01:43:00,,0825.3,5.00,0.00,29.9,29.1,00.0,38.8,31.7,09.0,0000.0,0031.40,0008.26,0005.28
2022-04-19 01:44:00,,0825.3,4.99,0.00,30.0,29.1,00.0,38.8,31.8,09.0,0000.0,0032.34,0008.33,0005.27
2022-04-19 01:45:00,,0825.3,4.99,0.00,30.0,29.1,00.0,38.8,31.8,09.0,0000.0,0032.16,0008.23,0005.26
2022-04-19 01:46:00,,0825.3,5.02,0.00,30.0,29.1,00.0,38.8,31.7,09.0,0000.0,0031.76,0008.14,0005.24
2022-04-19 01:47:00,,0825.3,5.01,0.00,30.0,29.1,00.0,38.8,31.7,09.0,0000.0,0031.99,0008.08,0005.24
2022-04-19 01:48:00,,0825.3,5.00,0.00,30.0,29.2,00.0,38.8,31.8,09.0,0000.0,0032.94,0008.05,0005.24
2022-04-19 01:49:00,,0825.3,5.02,0.00,30.0,29.2,00.0,38.8,31.8,09.0,0000.0,0034.13,0008.05,0005.25
2022-04-19 01:50:00,,0825.3,5.00,0.00,30.0,29.2,00.0,38.8,31.7,09.0,0000.0,0033.90,0008.03,0005.26
2022-04-19 01:51:00,,0825.3,4.99,0.00,30.0,29.2,00.0,38.8,31.8,09.0,0003.3,0033.32,0008.07,0005.26
2022-04-19 01:52:00,,0825.3,5.00,0.00,30.0,29.2,00.0,38.8,31.8,08.9,0010.7,0034.27,0008.09,0005.26
2022-04-19 01:53:00,,0825.3,5.02,0.00,30.0,29.2,00.0,38.9,31.8,08.9,0007.9,0034.31,0008.07,0005.26
2022-04-19 01:54:00,,0825.3,4.99,0.00,30.0,29.2,00.0,38.9,31.8,08.9,0001.6,0031.90,0008.01,0005.25
2022-04-19 01:55:00,,0825.3,4.99,0.00,30.0,29.2,00.0,38.9,31.8,08.9,0000.4,0031.68,0007.90,0005.26
2022-04-19 01:56:00,,0825.3,5.02,0.00,30.0,29.2,00.0,38.9,31.8,08.9,0001.1,0033.01,0007.88,0005.28
2022-04-19 01:57:00,,0825.3,4.99,0.00,30.0,29.2,00.0,38.9,31.8,08.9,0000.3,0032.74,0007.88,0005.28
2022-04-19 01:58:00,,0825.3,4.99,0.00,30.0,29.2,00.0,38.9,31.8,08.9,-000.7,0032.76,0007.95,0005.27
2022-04-19 01:59:00,,0825.3,5.00,0.00,30.0,29.2,00.0,38.9,31.8,08.9,-000.1,0031.82,0007.98,0005.27
